This demonstration page uses our WeatherBlox Daily Observations layout. Learn more.

Left ArrowRight Arrow

40.92945, -100.16068

Hourly Observations for November 25, 2019

Temp ( °F °C ) Dew Point ( °F °C ) Humidity (%) Winds ( mph kmh ) Pressure ( in mb ) Visibility ( mi km ) Precip ( " mm )
12:15 am 00:15 Clear 37 2.5 29 -1.6 75 75 WNW 8 13 29.74 1007 10 16.0934 0 0
12:35 am 00:35 Clear 37 2.5 29 -1.7 74 74 NNW 5 7 29.74 1007 10 16.0934 0 0
12:55 am 00:55 Clear 37 2.7 28 -2 71 71 NW 10 17 29.71 1006 10 16.0934 0 0
1:15 am 01:15 Clear 39 4 28 -2.2 64 64 WNW 9 15 29.68 1005 10 16.0934 0 0
1:35 am 01:35 Clear 39 3.7 28 -2.2 66 66 W 13 20 29.68 1005 10 16.0934 0 0
1:55 am 01:55 Clear 37 2.7 28 -2.5 69 69 WNW 12 19 29.74 1007 10 16.0934 0 0
2:15 am 02:15 Clear 37 2.5 27 -2.8 68 68 WNW 9 15 29.74 1007 10 16.0934 0 0
2:35 am 02:35 Clear 36 2.3 27 -2.8 69 69 WNW 10 17 29.74 1007 10 16.0934 0 0
2:55 am 02:55 Clear 36 2.3 27 -2.7 70 70 WNW 10 17 29.77 1008 10 16.0934 0 0
3:15 am 03:15 Clear 37 2.5 28 -2.3 71 71 WNW 10 17 29.77 1008 10 16.0934 0 0
3:35 am 03:35 Clear 37 2.5 29 -1.9 73 73 WNW 9 15 29.77 1008 10 16.0934 0 0
3:55 am 03:55 Clear 36 2 29 -1.8 76 76 WNW 10 17 29.77 1008 10 16.0934 0 0
4:15 am 04:15 Clear 35 1.7 29 -1.9 77 77 WNW 12 19 29.77 1008 10 16.0934 0 0
4:35 am 04:35 Clear 34 1.2 29 -1.9 80 80 WNW 12 19 29.77 1008 10 16.0934 0 0
4:55 am 04:55 Clear 33 0.8 29 -1.9 82 82 WNW 12 19 29.8 1009 10 16.0934 0 0
5:15 am 05:15 Clear 33 0.5 28 -2 84 84 WNW 10 17 29.8 1009 10 16.0934 0 0
5:35 am 05:35 Clear 32 0.1 28 -2.1 85 85 WNW 10 17 29.8 1009 10 16.0934 0 0
5:55 am 05:55 Clear 32 0.2 28 -2 85 85 WNW 10 17 29.83 1010 10 16.0934 0 0
6:15 am 06:15 Clear 32 -0.1 28 -2.4 85 85 WNW 10 17 29.83 1010 10 16.0934 0 0
6:35 am 06:35 Clear 32 0 28 -2.2 85 85 WNW 10 17 29.83 1010 10 16.0934 0 0
6:55 am 06:55 Clear 32 0 28 -2.3 85 85 WNW 9 15 29.85 1011 10 16.0934 0 0
7:15 am 07:15 Clear 31 -0.3 28 -2.5 85 85 W 10 17 29.85 1011 10 16.0934 0 0
7:35 am 07:35 Clear 31 -0.8 27 -2.8 86 86 W 10 17 29.85 1011 10 16.0934 0 0
7:55 am 07:55 Sunny 30 -1.1 26 -3.1 86 86 W 8 13 29.85 1011 10 16.0934 0 0
8:15 am 08:15 Sunny 30 -0.9 27 -2.7 88 88 WNW 6 9 29.85 1011 10 16.0934 0 0
8:35 am 08:35 Sunny 32 -0.2 28 -2.2 87 87 W 5 7 29.85 1011 10 16.0934 0 0
8:55 am 08:55 Sunny 36 2 30 -1.3 79 79 W 8 13 29.83 1010 10 16.0934 0 0
9:15 am 09:15 Sunny 37 3 30 -1.1 75 75 WNW 9 15 29.83 1010 10 16.0934 0 0
9:35 am 09:35 Sunny 38 3.6 30 -0.9 73 73 NW 7 11 29.83 1010 10 16.0934 0 0
9:55 am 09:55 Sunny 39 3.8 30 -1 71 71 NW 7 11 29.83 1010 10 16.0934 0 0
10:15 am 10:15 Sunny 40 4.7 31 -0.7 68 68 WNW 6 9 29.8 1009 10 16.0934 0 0
10:35 am 10:35 Sunny 43 6.1 30 -1 61 61 NNW 7 11 29.8 1009 10 16.0934 0 0
10:55 am 10:55 Sunny 45 7.3 29 -1.5 54 54 N 14 22 29.8 1009 10 16.0934 0 0
11:15 am 11:15 Sunny 48 9 24 -4.4 39 39 N 13 20 29.77 1008 10 16.0934 0 0
11:35 am 11:35 Sunny 49 9.4 24 -4.7 37 37 N 13 20 29.77 1008 10 16.0934 0 0
11:55 am 11:55 Sunny 49 9.6 24 -4.7 36 36 N 10 17 29.77 1008 10 16.0934 0 0
12:15 pm 12:15 Sunny 50 10 24 -4.4 36 36 N 12 19 29.74 1007 10 16.0934 0 0
12:35 pm 12:35 Sunny 50 10.2 24 -4.2 36 36 N 9 15 29.74 1007 10 16.0934 0 0
12:55 pm 12:55 Sunny 50 10.1 24 -4.6 36 36 N 5 7 29.74 1007 10 16.0934 0 0
1:15 pm 13:15 Sunny 51 10.4 22 -5.4 33 33 NNW 9 15 29.74 1007 10 16.0934 0 0
1:35 pm 13:35 Sunny 51 10.5 22 -5.3 33 33 NNW 9 15 29.71 1006 10 16.0934 0 0
1:55 pm 13:55 Sunny 51 10.5 21 -5.9 31 31 N 6 9 29.68 1005 10 16.0934 0 0
2:15 pm 14:15 Sunny 51 10.7 23 -5.2 33 33 N 9 15 29.68 1005 10 16.0934 0 0
2:35 pm 14:35 Sunny 51 10.6 20 -6.7 29 29 N 8 13 29.68 1005 10 16.0934 0 0
2:55 pm 14:55 Sunny 51 10.6 22 -5.5 32 32 NNE 8 13 29.68 1005 10 16.0934 0 0
3:15 pm 15:15 Sunny 51 10.6 22 -5.4 32 32 N 10 17 29.68 1005 10 16.0934 0 0
3:35 pm 15:35 Sunny 51 10.5 23 -4.9 34 34 N 9 15 29.68 1005 10 16.0934 0 0
3:55 pm 15:55 Sunny 50 10 24 -4.2 37 37 NNE 12 19 29.71 1006 10 16.0934 0 0
4:15 pm 16:15 Sunny 48 9 23 -5.1 37 37 NNE 9 15 29.71 1006 10 16.0934 0 0
4:35 pm 16:35 Sunny 47 8.5 22 -5.3 38 38 NNE 8 13 29.71 1006 10 16.0934 0 0
4:55 pm 16:55 Sunny 46 7.6 23 -4.8 41 41 NNE 8 13 29.71 1006 10 16.0934 0 0
5:15 pm 17:15 Clear 45 7.1 24 -4.5 44 44 NNE 9 15 29.77 1008 10 16.0934 0 0
5:35 pm 17:35 Partly Cloudy 44 6.6 25 -4 47 47 NNE 8 13 29.77 1008 10 16.0934 0 0
5:55 pm 17:55 Clear 42 5.8 25 -3.9 50 50 NE 7 11 29.77 1008 10 16.0934 0 0
6:15 pm 18:15 Partly Cloudy 41 5.2 25 -3.9 52 52 NE 8 13 29.77 1008 10 16.0934 0 0
6:35 pm 18:35 Mostly Cloudy 41 5.2 25 -4 52 52 NE 9 15 29.77 1008 10 16.0934 0 0
6:55 pm 18:55 Partly Cloudy 40 4.3 25 -4 55 55 NE 9 15 29.77 1008 10 16.0934 0 0
7:15 pm 19:15 Clear 40 4.4 24 -4.2 54 54 ENE 12 19 29.74 1007 10 16.0934 0 0
7:35 pm 19:35 Clear 40 4.5 24 -4.3 53 53 NE 9 15 29.77 1008 10 16.0934 0 0
7:55 pm 19:55 Clear 39 4 25 -4.1 56 56 NE 10 17 29.8 1009 10 16.0934 0 0
8:15 pm 20:15 Partly Cloudy 39 3.8 25 -4 57 57 NE 9 15 29.8 1009 10 16.0934 0 0
8:35 pm 20:35 Mostly Cloudy 39 3.8 25 -4 57 57 NE 9 15 29.8 1009 10 16.0934 0 0
8:55 pm 20:55 Mostly Cloudy 39 4 25 -4 56 56 ENE 12 19 29.8 1009 10 16.0934 0 0
9:15 pm 21:15 Partly Cloudy 38 3.6 25 -3.8 59 59 ENE 9 15 29.8 1009 10 16.0934 0 0
9:35 pm 21:35 Clear 37 3 25 -4 60 60 E 7 11 29.8 1009 10 16.0934 0 0
9:55 pm 21:55 Clear 36 2.1 25 -3.9 65 65 E 8 13 29.8 1009 10 16.0934 0 0
10:15 pm 22:15 Clear 36 2 25 -4 65 65 E 6 9 29.8 1009 10 16.0934 0 0
10:35 pm 22:35 Clear 34 1.2 25 -4 69 69 ENE 5 7 29.8 1009 10 16.0934 0 0
10:55 pm 22:55 Clear 33 0.5 25 -4 72 72 ENE 5 7 29.83 1010 10 16.0934 0 0
11:15 pm 23:15 Clear 32 -0.2 24 -4.7 72 72 NE 6 9 29.83 1010 10 16.0934 0 0
11:35 pm 23:35 Clear 31 -0.5 24 -4.5 75 75 E 3 6 29.83 1010 10 16.0934 0 0
11:55 pm 23:55 Clear 30 -1 24 -4.5 77 77 Calm 29.83 1010 10 16.0934 0 0

Powered by AerisWeather